, AK

(GMT )
Portage Glacier

Weather History for PATO - January, 2014

Change the Weather History Date:

Thursday, January 30, 2014

  Actual Average Record
Temperature  
Mean Temperature 26 °F -  
Max Temperature 30 °F - - ()
Min Temperature 23 °F - - ()
Degree Days  
Heating Degree Days 38    
Moisture  
Dew Point 25 °F    
Average Humidity 99    
Maximum Humidity 100    
Minimum Humidity 96    
Precipitation  
Precipitation 0.00 in - - ()
Sea Level Pressure  
Sea Level Pressure 30.20 in    
Wind  
Wind Speed 1 mph (West)    
Max Wind Speed 6 mph    
Max Gust Speed -    
Visibility 6 miles    
Events Fog    
Averages and records for this station are not official NWS values.
T = Trace of Precipitation, MM = Missing Value Source: NWS Daily Summary

Daily Weather History Graph

Daily Weather History Graph

Search for Another Location

Airport or City:

Trip Planner

Search our weather history database for the weather conditions in past years. The results will help you decide how hot, cold, wet, or windy it might be!

Date:

Astronomy

Jan. 30, 2014 Rise Set
Actual Time 9:17 AM AKST 5:00 PM AKST
Civil Twilight 8:28 AM AKST 5:49 PM AKST
Nautical Twilight 7:35 AM AKST 6:42 PM AKST
Astronomical Twilight 6:46 AM AKST 7:32 PM AKST
Moon 8:35 AM AKST (1/30) 5:45 PM AKST (1/30)
Length of Visible Light 9h 21m
Length of Day
7h 42m
Waning Crescent, 0% of the Moon is Illuminated
Jan 30
Waning Crescent
Jan 30
New
Feb 6
First Quarter
Feb 14
Full
Feb 22
Last Quarter

Hourly Weather History & Observations

Time (AKST) Temp. Windchill Dew Point Humidity Pressure Visibility Wind Dir Wind Speed Gust Speed Precip Events Conditions
12:53 AM 27.0 °F - 26.1 °F 96% 30.18 in 10.0 mi Calm Calm - N/A   Clear
1:53 AM 27.0 °F - 26.1 °F 96% 30.19 in 10.0 mi Calm Calm - N/A   Clear
2:53 AM 26.1 °F - 25.0 °F 96% 30.18 in 10.0 mi Calm Calm - N/A   Scattered Clouds
3:53 AM 25.0 °F 20.7 °F 25.0 °F 100% 30.18 in 10.0 mi West 3.5 mph - N/A   Clear
4:16 AM 25.0 °F - 25.0 °F 100% 30.18 in 10.0 mi Calm Calm - N/A   Partly Cloudy
4:53 AM 24.1 °F - 24.1 °F 100% 30.19 in 10.0 mi Calm Calm - N/A   Partly Cloudy
5:06 AM 24.1 °F - 24.1 °F 100% 30.19 in 10.0 mi Calm Calm - N/A   Mostly Cloudy
5:16 AM 24.1 °F - 24.1 °F 100% 30.19 in 1.8 mi Calm Calm - N/A   Overcast
5:25 AM 24.1 °F - 24.1 °F 100% 30.19 in 4.0 mi Calm Calm - N/A   Mostly Cloudy
5:37 AM 24.1 °F - 23.0 °F 96% 30.19 in 9.0 mi Calm Calm - N/A   Scattered Clouds
5:53 AM 24.1 °F - 23.0 °F 96% 30.19 in 10.0 mi Calm Calm - N/A   Partly Cloudy
6:14 AM 23.0 °F - 21.9 °F 96% 30.19 in 2.5 mi Calm Calm - N/A   Mostly Cloudy
6:21 AM 24.1 °F - 23.0 °F 96% 30.19 in 1.0 mi Calm Calm - N/A   Mostly Cloudy
6:46 AM 25.0 °F - 24.1 °F 96% 30.19 in 0.8 mi Calm Calm - N/A   Mist
6:53 AM 25.0 °F - 24.1 °F 96% 30.20 in 0.8 mi Calm Calm - N/A   Mist
7:03 AM 24.1 °F - 24.1 °F 100% 30.20 in 1.0 mi Calm Calm - N/A   Mist
7:39 AM 24.1 °F - 24.1 °F 100% 30.20 in 0.5 mi Calm Calm - N/A Fog Light Freezing Fog
7:53 AM 24.1 °F - 24.1 °F 100% 30.20 in 0.8 mi Calm Calm - N/A   Mist
8:16 AM 24.1 °F 19.7 °F 23.0 °F 96% 30.20 in 1.5 mi West 3.5 mph - N/A   Overcast
8:53 AM 24.1 °F - 23.0 °F 96% 30.21 in 0.8 mi Calm Calm - N/A   Mist
9:00 AM 23.0 °F - 23.0 °F 100% 30.20 in 1.5 mi Calm Calm - N/A   Overcast
9:34 AM 24.1 °F - 24.1 °F 100% 30.21 in 0.2 mi Calm Calm - N/A Fog Light Freezing Fog
9:53 AM 24.1 °F - 24.1 °F 100% 30.22 in 0.2 mi Calm Calm - N/A Fog Light Freezing Fog
10:31 AM 26.1 °F 21.9 °F 26.1 °F 100% 30.21 in 0.5 mi WSW 3.5 mph - N/A Fog Light Freezing Fog
10:53 AM 26.1 °F 20.5 °F 26.1 °F 100% 30.22 in 4.0 mi WSW 4.6 mph - N/A   Overcast
11:53 AM 27.0 °F - 26.1 °F 96% 30.23 in 10.0 mi Calm Calm - N/A   Overcast
12:12 PM 27.0 °F - 27.0 °F 100% 30.22 in 10.0 mi Calm Calm - N/A   Overcast
12:53 PM 28.0 °F - 28.0 °F 100% 30.22 in 1.2 mi Calm Calm - N/A   Overcast
1:02 PM 28.9 °F 25.2 °F 28.9 °F 100% 30.21 in 0.5 mi Variable 3.5 mph - N/A Fog Light Freezing Fog
1:22 PM 28.9 °F 23.9 °F 28.9 °F 100% 30.21 in 1.2 mi West 4.6 mph - N/A   Overcast
1:46 PM 28.9 °F 25.2 °F 28.9 °F 100% 30.21 in 2.0 mi Variable 3.5 mph - N/A   Overcast
1:53 PM 28.9 °F 23.9 °F 28.9 °F 100% 30.22 in 1.5 mi West 4.6 mph - N/A   Overcast
2:00 PM 28.9 °F 25.2 °F 28.9 °F 100% 30.21 in 3.0 mi West 3.5 mph - N/A   Overcast
2:53 PM 30.0 °F - 30.0 °F 100% 30.22 in 10.0 mi Calm Calm - N/A   Overcast
3:53 PM 28.9 °F - 28.9 °F 100% 30.21 in 10.0 mi Calm Calm - N/A   Overcast
4:53 PM 28.9 °F 23.9 °F 28.9 °F 100% 30.21 in 10.0 mi West 4.6 mph - N/A   Overcast
5:19 PM 28.9 °F 23.9 °F 28.9 °F 100% 30.21 in 10.0 mi West 4.6 mph - N/A   Overcast
5:53 PM 28.0 °F 21.7 °F 28.0 °F 100% 30.21 in 10.0 mi West 5.8 mph - N/A   Mostly Cloudy
6:07 PM 28.0 °F 22.8 °F 27.0 °F 96% 30.21 in 10.0 mi West 4.6 mph - N/A   Scattered Clouds
6:53 PM 26.1 °F - 26.1 °F 100% 30.22 in 10.0 mi Calm Calm - N/A   Clear
7:53 PM 25.0 °F - 24.1 °F 96% 30.22 in 10.0 mi Calm Calm - N/A   Clear
8:23 PM 25.0 °F - 24.1 °F 96% 30.21 in 10.0 mi Calm Calm - N/A   Partly Cloudy
8:53 PM 23.0 °F - 23.0 °F 100% 30.21 in 10.0 mi Calm Calm - N/A   Clear
9:53 PM 25.0 °F - 24.1 °F 96% 30.20 in 10.0 mi Calm Calm - N/A   Clear
10:00 PM 24.1 °F 18.2 °F 24.1 °F 100% 30.20 in 10.0 mi West 4.6 mph - N/A   Partly Cloudy
10:21 PM 24.1 °F 18.2 °F 24.1 °F 100% 30.20 in 9.0 mi West 4.6 mph - N/A   Mostly Cloudy
10:53 PM 25.0 °F - 25.0 °F 100% 30.21 in 10.0 mi Calm Calm - N/A   Overcast
11:41 PM 25.0 °F 20.7 °F 25.0 °F 100% 30.21 in 1.8 mi Variable 3.5 mph - N/A   Overcast
11:53 PM 25.0 °F 20.7 °F 25.0 °F 100% 30.21 in 1.0 mi WNW 3.5 mph - N/A   Mist